www.pogodaiklimat.ru

Погода и климат >> Архив погоды >> Индия >> Bhuj-Rudramata


ПОГОДА в Bhuj-Rudramata

  • Прогноз погоды в Bhuj-Rudramata
  • Монитор погоды в Bhuj-Rudramata
  • Климат города

АРХИВ ПОГОДЫ в Bhuj-Rudramata

Время (UTC), дата Ветер
(напр.,м/с)
 
Видим.   Явления Облачность Т
(С)
Тd
(С)
f
(%)
Тe
(С)
Тes
(С)
Комфортность P
(гПа)
Po
(гПа)
Тmin
(С)
Tmax
(С)
R
(мм)
R24
(мм)
S
(см)
12 6.12 штиль 0 4000 м ясно +31.0 +3.8 18 +29 +29 жарко 1010.7 1011.0 +33.2
15 6.12 штиль 0 4000 м ясно +24.2 +2.7 25 +23 +23 комфорт 1013.2 1013.0
18 6.12 штиль 0 4000 м ясно +20.4 +10.5 53 +22 +22 комфорт 1013.2 1013.0
21 6.12 штиль 0 4000 м ясно +18.6 +11.5 63 +19 +19 1012.5 1013.0
00 7.12 штиль 0 4000 м ясно +17.6 +11.5 67 +18 +18 1012.3 1012.0
03 7.12 штиль 0 4000 м ясно +18.4 +15.5 83 +19 +20 1014.4 1014.0 +17.0
06 7.12 СВ 1 4000 м ясно +28.2 +13.0 39 +30 +40 жарко 1015.0 1015.0
09 7.12 СВ 1 4000 м ясно +32.0 +7.8 22 +31 +40 жарко 1011.7 1012.0
12 7.12 штиль 0 4000 м ясно +30.4 +10.0 28 +30 +31 жарко 1011.2 1011.0 +32.6
15 7.12 штиль 0 4000 м ясно +23.4 +6.3 33 +24 +24 комфорт 1012.8 1013.0
18 7.12 штиль 0 4000 м ясно +20.4 +12.6 61 +22 +22 комфорт 1012.5 1013.0
21 7.12 штиль 0 4000 м ясно +18.6 +13.3 71 +19 +19 1012.1 1012.0
00 8.12 штиль 0 4000 м ясно +17.6 +13.4 76 +18 +18 1012.1 1012.0
03 8.12 ЮЗ 1 4000 м ясно +18.0 +10.6 62 +19 +20 1014.9 1015.0 +16.4
06 8.12 СВ 1 4000 м ясно +27.4 +13.2 42 +29 +40 жарко 1016.9 1017.0
09 8.12 СВ 1 4000 м ясно +31.6 +5.8 20 +30 +39 жарко 1011.2 1011.0
12 8.12 З 1 4000 м ясно +29.2 +9.1 28 +29 +29 жарко 1012.3 1012.0 +32.2
15 8.12 СВ 1 4000 м ясно +24.0 +8.3 37 +25 +25 комфорт 1014.0 1014.0
18 8.12 штиль 0 4000 м ясно +20.6 +7.9 44 +22 +22 комфорт 1015.0 1015.0
21 8.12 штиль 0 4000 м ясно +20.0 +9.0 49 +21 +21 комфорт 1014.3 1014.0
00 9.12 штиль 0 4000 м ясно +18.4 +14.6 79 +19 +19 1013.8 1014.0
03 9.12 штиль 0 2000 м мгла ясно +19.4 +16.8 85 +21 +22 комфорт 1014.7 1015.0 +17.3
06 9.12 СВ 1 4000 м ясно +27.8 +15.0 46 +30 +42 жарко 1015.2 1015.0
09 9.12 штиль 0 4000 м ясно +31.0 +12.4 32 +32 +43 жарко 1011.9 1012.0
12 9.12 штиль 0 4000 м ясно +29.4 +11.4 33 +30 +31 жарко 1010.3 1010.0 +32.0
15 9.12 штиль 0 4000 м ясно +24.2 +11.0 43 +25 +25 комфорт 1012.7 1013.0
18 9.12 ЮЗ 2 4000 м ясно +22.0 +14.9 64 +25 +25 комфорт 1013.5 1014.0
21 9.12 штиль 0 4000 м ясно +20.2 +15.4 74 +23 +23 комфорт 1012.8 1013.0
00 10.12 штиль 0 4000 м ясно +18.6 +16.3 86 +19 +19 1012.8 1013.0
03 10.12 штиль 0 4000 м 4/4 600 м
[Sc]
+22.0 +20.1 89 +28 +29 душно 1012.8 1013.0 +19.4
06 10.12 штиль 0 4000 м 6/6 600 м
[Sc]
+28.0 +19.4 60 +34 +39 очень
душно
1013.3 1013.0
09 10.12 ЮЗ 2 4000 м ясно +30.0 +13.3 36 +31 +40 жарко 1011.5 1012.0
12 10.12 ЮЗ 2 4000 м 5/5 600 м
[Sc]
+28.2 +10.1 32 +28 +29 жарко 1010.1 1010.0 +32.0
15 10.12 ЮЗ 2 4000 м ясно +25.0 +14.6 52 +28 +28 жарко 1012.2 1012.0
18 10.12 ЮЗ 2 4000 м ясно +22.6 +16.0 66 +27 +27 душно 1013.4 1013.0
21 10.12 штиль 0 4000 м ясно +20.4 +16.8 80 +23 +23 комфорт 1012.9 1013.0
00 11.12 штиль 0 4000 м ясно +18.2 +15.9 86 +19 +19 1012.8 1013.0
03 11.12 штиль 0 4000 м ясно +19.4 +17.8 90 +21 +22 комфорт 1014.3 1014.0 +18.6
06 11.12 З 1 4000 м ясно +26.2 +15.0 50 +29 +39 жарко 1015.1 1015.0
09 11.12 СВ 1 4000 м 5/5 600 м
[Sc]
+31.0 +7.1 22 +30 +34 жарко 1012.5 1013.0
12 11.12 СВ 1 4000 м 4/4 600 м
[Sc]
+30.0 +5.9 22 +29 +29 жарко 1012.0 1012.0 +32.0
15 11.12 штиль 0 4000 м ясно +25.0 +8.2 34 +25 +25 комфорт 1013.5 1014.0
18 11.12 С 1 4000 м ясно +22.6 +5.5 33 +23 +23 комфорт 1014.4 1014.0
21 11.12 штиль 0 4000 м ясно +20.0 +6.0 40 +21 +21 комфорт 1013.0 1013.0
00 12.12 штиль 0 4000 м ясно +18.2 +5.8 44 +18 +18 1013.8 1014.0
03 12.12 СВ 1 4000 м ясно +18.0 +7.3 50 +19 +20 1016.4 1016.0 +17.4
06 12.12 СВ 2 4000 м ясно +24.0 +10.3 42 +25 +34 комфорт 1013.0 1013.0
09 12.12 С 2 4000 м ясно +28.4 +10.2 32 +29 +38 жарко 1014.6 1015.0
12 12.12 СВ 1 4000 м ясно +26.6 +8.1 31 +27 +27 жарко 1014.6 1015.0 +29.0
15 12.12 штиль 0 4000 м ясно +22.0 -0.3 23 +21 +21 комфорт 1016.5 1017.0
18 12.12 СВ 1 4000 м ясно +20.0 +3.0 32 +21 +21 комфорт 1018.5 1019.0
21 12.12 штиль 0 4000 м ясно +19.8 +5.8 40 +20 +20 1018.0 1018.0
00 13.12 штиль 0 4000 м ясно +16.4 +7.7 56 +16 +16 1017.9 1018.0
03 13.12 штиль 0 2000 м мгла ясно +15.8 +13.7 87 +16 +17 1020.7 1021.0 +14.3
06 13.12 штиль 0 4000 м ясно +22.8 +11.4 49 +25 +37 комфорт 1021.5 1022.0

 

Местоположение метеостанции Bhuj-Rudramata (Gujarat, Индия): широта 23.25 долгота 69.67 высота над уровнем моря 80 м.

В архиве по умолчанию представлена погода в Bhuj-Rudramata за последнюю неделю. Архивные данные за месяц целиком и за предыдущие месяцы, начиная с января 2011 года, Вы можете получить, выбрав интересующий диапазон дат из раскрывающегося списка и нажав кнопку "Ввод!".


*Определитесь, кто Вы:
робот инопланетянин человек

Внимание! Время в таблицах - всемирное. Для получения местного времени необходимо прибавить поправку, которая в Bhuj-Rudramata равна 5.5 ч.

Смотрите также архив погоды в соседних городах и на ближайших метеорологических станциях:

Погода в Kandla (Gujarat, Индия) (47 км)
Погода в New Kandla (Gujarat, Индия) (63 км)
Погода в Mandvi (Gujarat, Индия) (63 км)
Погода в Naliya (Gujarat, Индия) (84 км)
Погода в Okha (Gujarat, Индия) (103 км)
Погода в Dwarka (Gujarat, Индия) (115 км)
Погода в Rajkot (Gujarat, Индия) (155 км)
Погода в Badin (Пакистан) (172 км)
Погода в Porbandar (Gujarat, Индия) (178 км)
Погода в Surendranagar (Gujarat, Индия) (206 км)

Пояснения к столбцам:

Ветер - указаны скорость ветра в м/с - средняя за 10 мин, порывы в срок и между сроками (в фигурных скобках) и направление, откуда дует ветер: С - северный, СВ - северо-восточный, В - восточный, ЮВ - юго-восточный, Ю - южный, ЮЗ - юго-западный, З - западный, СЗ - северо-западный.
Видимость - горизонтальная дальность видимости в метрах или километрах. При видимости от 1 до 10 км при отсутствии осадков обычно наблюдается дымка, при ухудшении видимости до 1 км и менее - туман. В сухую погоду видимость может ухудшаться дымом, пылью или мглою.
Явления - указаны атмосферные явления, наблюдавшиеся в срок или в последний час перед сроком; фигурными скобками обозначены явления, наблюдавшиеся между сроками (за 1-3 часа до срока); квадратными скобками обозначены град или гололедные отложения с указанием их диаметра в мм.
Облачность - указаны через наклонную черту общая и нижняя облачность в баллах и высота нижней границы облаков в метрах; квадратными скобками обозначены формы облаков: Ci - перистые, Cs - перисто-слоистые, Cc - перисто-кучевые, Ac - высококучевые, As - высокослоистые, Sc - слоисто-кучевые, Ns - слоисто-дождевые, Cu - кучевые, Cb - кучево-дождевые. Подробнее классификацию облаков см. в Атласе облаков (PDF).
T - Температура воздуха - температура, измеренная на высоте 2 м над землей.
Td - Температура точки росы - температура, при понижении до которой содержащийся в воздухе водяной пар достигнет насыщения.
f - Относительная влажность воздуха - влажноcть воздуха, измеренная на высоте 2 м над землей.
Te - Эффективная температура - температура, которую ощущает одетый по сезону человек в тени. Характеристика душности погоды. При расчете учитывается влияние влажности воздуха и скорости ветра на теплоощущения человека.
Tes - Эффективная температура на солнце - температура, которую ощущает человек, с поправкой на солнечный нагрев. Характеристика знойности погоды. Зависит от высоты солнца над горизонтом, облачности и скорости ветра. Ночью, в пасмурную погоду, а также при ветре 12 м/с и более поправка равна нулю.
P - Атмосферное давление - приведенное к уровню моря атмосферное давление.
Po - Атмосферное давление - измеренное на уровне метеостанции атмосферное давление.
Tmin - Минимальная температура - минимум температуры воздуха на высоте 2 м над землей.
Tmax - Максимальная температура - максимум температуры воздуха на высоте 2 м над землей.
R - Количество осадков - Количество выпавших осадков за период времени, мм. При наведении курсора мыши на число - период времени, за который выпало указанное количество осадков.
R24 - Количество осадков - Количество выпавших осадков за 24 часа, мм.
S - Снежный покров - Высота снежного покрова, см. При наведении курсора мыши на число - состояние снежного покрова и степень покрытия местности в баллах.